Location: Pasadena, ca
(34.1243°N, 118.1037°W)
Time: 18:48:06
(UTC-08:00)

ISS - Pass Details

Date: 15 November 2017
Orbit: 402 x 407 km, 51.6° (Epoch: 19 November)

Event Time Altitude Azimuth Distance (km) Brightness Sun altitude
Exits shadow 05:11:31 12° 349° (NNW) 1,355 -1.4 -15.4°
Maximum altitude 05:13:37 19° 33° (NNE) 1,015 -1.6 -15.0°
Drops below altitude 10° 05:16:04 10° 82° (E) 1,449 0.1 -14.5°
Sets 05:18:32 0° 101° (E) 2,305 2.0 -14.0°
